Szeged, Hungary

7:50 AM CET on January 18, 2017 (GMT +0100)
Szeged

Weather History for LHUD - May, 2013

Change the Weather History Date:

Sunday, May 26, 2013

  Actual Average (LRAR) Record (LRAR)
Temperature  
Mean Temperature 50 °F -  
Max Temperature 55 °F 77 °F 86 °F (2002)
Min Temperature 46 °F 55 °F 39 °F (1997)
Degree Days  
Heating Degree Days 14    
Moisture  
Dew Point 50 °F    
Average Humidity 94    
Maximum Humidity 100    
Minimum Humidity 77    
Precipitation  
Precipitation 0.20 in 0.09 in - ()
Sea Level Pressure  
Sea Level Pressure 29.76 in    
Wind  
Wind Speed 6 mph ()    
Max Wind Speed 14 mph    
Max Gust Speed -    
Visibility 5.4 miles    
Events Fog , Rain    
Averages and records for this station are not official NWS values.
T = Trace of Precipitation, MM = Missing Value Source: Averaged Metar Reports

Daily Weather History Graph

Daily Weather History Graph

Search for Another Location

Airport or City:

Trip Planner

Search our weather history database for the weather conditions in past years. The results will help you decide how hot, cold, wet, or windy it might be!

Date:

Astronomy

May. 26, 2013 Rise Set
Actual Time 4:55 AM CEST 8:18 PM CEST
Civil Twilight 4:18 AM CEST 8:55 PM CEST
Nautical Twilight 3:30 AM CEST 9:43 PM CEST
Astronomical Twilight 2:28 AM CEST 10:46 PM CEST
Moon 9:47 PM CEST (5/26) 6:05 AM CEST (5/26)
Length of Visible Light 16h 36m
Length of Day
15h 22m
Full, 98% of the Moon is Illuminated
May 26
Full
May 31
Last Quarter
Jun 8
New
Jun 16
First Quarter
Jun 23
Full

Hourly Weather History & Observations

Time (CEST) Temp. Dew Point Humidity Pressure Visibility Wind Dir Wind Speed Gust Speed Precip Events Conditions
12:45 AM 51.8 °F 51.8 °F 100% 29.77 in 6.2 mi WSW 4.6 mph - N/A   Scattered Clouds
1:45 AM 51.8 °F 51.8 °F 100% 29.77 in 5.0 mi West 2.3 mph - N/A   Mostly Cloudy
2:00 AM 51 °F 51 °F 100% 29.77 in 5 mi West 2.2 mph - -   Partly Cloudy
2:45 AM 48.2 °F 48.2 °F 100% 29.74 in 1.1 mi Calm Calm - N/A   Partly Cloudy
3:00 AM 48.2 °F 48.2 °F 100% 29.77 in 0.5 mi South 2.3 mph - N/A Fog Fog
3:45 AM 46.4 °F 46.4 °F 100% 29.74 in 0.1 mi South 2.3 mph - N/A Fog Fog
4:45 AM 48.2 °F 48.2 °F 100% 29.74 in 0.2 mi SSE 4.6 mph - N/A Fog Fog
5:45 AM 48.2 °F 48.2 °F 100% 29.74 in 1.9 mi SSW 5.8 mph - N/A   Mostly Cloudy
6:15 AM 50.0 °F 50.0 °F 100% 29.74 in 2.5 mi SSW 5.8 mph - N/A   Scattered Clouds
6:45 AM 50.0 °F 50.0 °F 100% 29.74 in 5.0 mi SW 4.6 mph - N/A   Mostly Cloudy
7:15 AM 51.8 °F 51.8 °F 100% 29.74 in 6.2 mi South 3.5 mph - N/A   Mostly Cloudy
7:45 AM 51.8 °F 51.8 °F 100% 29.74 in 6.2 mi SSE 4.6 mph - N/A   Mostly Cloudy
8:00 AM 52 °F 52 °F 100% 29.74 in 12 mi SSE 4.5 mph - -   Partly Cloudy
8:15 AM 53.6 °F 51.8 °F 94% 29.74 in 6.2 mi South 4.6 mph - N/A   Scattered Clouds
8:45 AM 53.6 °F 51.8 °F 94% 29.74 in 6.2 mi South 8.1 mph - N/A   Mostly Cloudy
9:15 AM 53.6 °F 51.8 °F 94% 29.74 in 6.2 mi SSW 8.1 mph - N/A   Scattered Clouds
9:45 AM 53.6 °F 50.0 °F 88% 29.74 in 6.2 mi SSW 8.1 mph - N/A   Scattered Clouds
9:56 AM 53.6 °F 50.0 °F 88% 29.74 in 6.2 mi SSW 6.9 mph - N/A Rain Light Rain Showers
10:15 AM 53.6 °F 51.8 °F 94% 29.74 in 4.3 mi SW 8.1 mph - N/A Rain Light Rain Showers
10:45 AM 53.6 °F 51.8 °F 94% 29.74 in 5.0 mi South 4.6 mph - N/A Rain Light Rain Showers
11:15 AM 53.6 °F 50.0 °F 88% 29.74 in 6.2 mi SSW 12.7 mph - N/A   Mostly Cloudy
11:45 AM 53.6 °F 50.0 °F 88% 29.74 in 6.2 mi SSW 11.5 mph - N/A Rain Light Rain
12:15 PM 53.6 °F 51.8 °F 94% 29.74 in 6.2 mi SW 9.2 mph - N/A Rain Light Rain
12:45 PM 53.6 °F 50.0 °F 88% 29.77 in 6.2 mi SW 10.4 mph - N/A Rain Light Rain
1:15 PM 53.6 °F 50.0 °F 88% 29.74 in 6.2 mi SW 11.5 mph - N/A Rain Light Rain
1:45 PM 55.4 °F 50.0 °F 82% 29.74 in 6.2 mi WSW 11.5 mph - N/A Rain Light Rain
2:00 PM 55 °F 50 °F 78% 29.75 in 6 mi WSW 11.2 mph - - Rain Light Rain
2:15 PM 53.6 °F 48.2 °F 82% 29.74 in 3.7 mi WSW 13.8 mph - N/A   Mostly Cloudy
2:45 PM 53.6 °F 48.2 °F 82% 29.74 in 6.2 mi West 12.7 mph - N/A   Mostly Cloudy
3:15 PM 53.6 °F 48.2 °F 82% 29.74 in 6.2 mi West 11.5 mph - N/A   Mostly Cloudy
3:45 PM 53.6 °F 48.2 °F 82% 29.74 in 6.2 mi WSW 12.7 mph - N/A   Mostly Cloudy
4:15 PM 53.6 °F 46.4 °F 77% 29.74 in 6.2 mi WSW 11.5 mph - N/A   Mostly Cloudy
4:45 PM 53.6 °F 48.2 °F 82% 29.74 in 6.2 mi West 10.4 mph - N/A Rain Light Rain Showers
5:15 PM 50.0 °F 48.2 °F 94% 29.77 in 5.0 mi West 11.5 mph - N/A Rain Rain
5:45 PM 50.0 °F 50.0 °F 100% 29.77 in 5.6 mi West 13.8 mph - N/A Rain Rain
6:15 PM 50.0 °F 50.0 °F 100% 29.77 in 6.2 mi West 10.4 mph - N/A Rain Rain
6:45 PM 50.0 °F 50.0 °F 100% 29.80 in 6.2 mi WSW 11.5 mph - N/A Rain Light Rain
7:15 PM 50.0 °F 50.0 °F 100% 29.80 in 6.2 mi WSW 9.2 mph - N/A Rain Light Rain
7:45 PM 50.0 °F 50.0 °F 100% 29.80 in 6.2 mi WSW 6.9 mph - N/A Rain Light Rain
8:00 PM 50 °F 50 °F 99% 29.80 in 11 mi WSW 6.7 mph - - Rain Light Rain
8:15 PM 50.0 °F 50.0 °F 100% 29.80 in 6.2 mi SW 8.1 mph - N/A   Mostly Cloudy
8:45 PM 50.0 °F 50.0 °F 100% 29.80 in - SW 10.4 mph - N/A   Clear
9:15 PM 51.8 °F 50.0 °F 94% 29.80 in - SW 10.4 mph - N/A   Clear
9:45 PM 51.8 °F 50.0 °F 94% 29.80 in 6.2 mi SW 9.2 mph - N/A   Mostly Cloudy
10:45 PM 51.8 °F 50.0 °F 94% 29.80 in - SW 10.4 mph - N/A   Clear
11:45 PM 50.0 °F 48.2 °F 94% 29.83 in - WSW 13.8 mph - N/A   Clear